• In Deutschland
  • Länderverzeichnis
  • Für 7 Tage
  • Wassertemperatur
  • Satellitenkarten
  • Wetterkarte
  • Widgets
  • user-avatar
    Anmelden

    Stündliche Wetter Barra

    Heute, 29 März, Mittwoch

    Zeit Temperatur Niederschläge Wind Luftdruck Luftfeuchtigkeit
    00:00 +29°C° 0 mm 4 m/S 740 mmHg 71%
    01:00 +29°C° 0 mm 4 m/S 740 mmHg 69%
    02:00 +29°C° 0 mm 4 m/S 740 mmHg 70%
    03:00 +28°C° 0 mm 4 m/S 740 mmHg 70%
    04:00 +28°C° 0 mm 4 m/S 740 mmHg 71%
    05:00 +28°C° 0 mm 4 m/S 741 mmHg 73%
    06:00 +28°C° 0 mm 4 m/S 741 mmHg 75%
    07:00 +28°C° 0 mm 4 m/S 741 mmHg 78%
    08:00 +30°C° 0 mm 4 m/S 742 mmHg 71%
    09:00 +32°C° 0 mm 4 m/S 742 mmHg 64%
    10:00 +34°C° 0 mm 4 m/S 743 mmHg 58%
    11:00 +36°C° 0 mm 5 m/S 742 mmHg 54%
    12:00 +37°C° 0 mm 5 m/S 742 mmHg 49%
    13:00 +39°C° 0 mm 5 m/S 742 mmHg 45%
    14:00 +37°C° 0,3 mm 5 m/S 742 mmHg 51%
    15:00 +36°C° 0,3 mm 6 m/S 741 mmHg 57%
    16:00 +36°C° 0,3 mm 6 m/S 741 mmHg 62%
    17:00 +34°C° 0,6 mm 5 m/S 742 mmHg 70%
    18:00 +32°C° 0,6 mm 5 m/S 742 mmHg 79%
    19:00 +29°C° 0,6 mm 5 m/S 742 mmHg 87%
    20:00 +28°C° 0,6 mm 5 m/S 743 mmHg 88%
    21:00 +28°C° 0,6 mm 5 m/S 744 mmHg 88%
    22:00 +28°C° 0,6 mm 5 m/S 744 mmHg 89%
    23:00 +27°C° 1 mm 5 m/S 744 mmHg 90%

    Morgen, 30 März, Donnerstag

    Zeit Temperatur Niederschläge Wind Luftdruck Luftfeuchtigkeit
    00:00 +27°C° 1 mm 5 m/S 744 mmHg 91%
    01:00 +27°C° 1 mm 5 m/S 744 mmHg 92%
    02:00 +27°C° 0,6 mm 4 m/S 744 mmHg 92%
    03:00 +26°C° 0,6 mm 4 m/S 744 mmHg 93%
    04:00 +26°C° 0,6 mm 4 m/S 744 mmHg 93%
    05:00 +26°C° 0 mm 3 m/S 745 mmHg 94%
    06:00 +27°C° 0 mm 3 m/S 745 mmHg 94%
    07:00 +27°C° 0 mm 3 m/S 746 mmHg 94%
    08:00 +29°C° 0 mm 3 m/S 746 mmHg 83%
    09:00 +33°C° 0 mm 3 m/S 747 mmHg 71%
    10:00 +36°C° 0 mm 2 m/S 747 mmHg 60%
    11:00 +37°C° 0 mm 3 m/S 746 mmHg 55%
    12:00 +38°C° 0 mm 3 m/S 746 mmHg 49%
    13:00 +39°C° 0 mm 3 m/S 745 mmHg 43%
    14:00 +38°C° 0 mm 4 m/S 745 mmHg 48%
    15:00 +37°C° 0 mm 4 m/S 744 mmHg 52%
    16:00 +36°C° 0 mm 4 m/S 744 mmHg 56%
    17:00 +34°C° 0 mm 4 m/S 744 mmHg 68%
    18:00 +32°C° 0 mm 4 m/S 745 mmHg 81%
    19:00 +28°C° 0 mm 3 m/S 745 mmHg 93%
    20:00 +28°C° 0 mm 3 m/S 746 mmHg 92%
    21:00 +28°C° 0 mm 3 m/S 746 mmHg 91%
    22:00 +27°C° 0 mm 3 m/S 747 mmHg 90%
    23:00 +27°C° 0 mm 3 m/S 747 mmHg 87%

    übermorgen, 31 März, Freitag

    Zeit Temperatur Niederschläge Wind Luftdruck Luftfeuchtigkeit
    00:00 +28°C° 0 mm 3 m/S 746 mmHg 83%
    01:00 +28°C° 0 mm 3 m/S 746 mmHg 80%
    02:00 +27°C° 0 mm 2 m/S 746 mmHg 81%
    03:00 +27°C° 0 mm 2 m/S 746 mmHg 81%
    04:00 +26°C° 0 mm 2 m/S 745 mmHg 82%
    05:00 +26°C° 0 mm 1 m/S 746 mmHg 81%
    06:00 +27°C° 0 mm 1 m/S 746 mmHg 80%
    07:00 +27°C° 0 mm 1 m/S 747 mmHg 79%
    08:00 +29°C° 0 mm 1 m/S 747 mmHg 71%
    09:00 +31°C° 0 mm 2 m/S 747 mmHg 62%
    10:00 +34°C° 0 mm 2 m/S 748 mmHg 54%
    11:00 +35°C° 0 mm 2 m/S 747 mmHg 52%
    12:00 +36°C° 0 mm 2 m/S 746 mmHg 50%
    13:00 +37°C° 0 mm 3 m/S 746 mmHg 48%
    14:00 +36°C° 0,1 mm 3 m/S 745 mmHg 52%
    15:00 +35°C° 0,1 mm 3 m/S 745 mmHg 56%
    16:00 +34°C° 0,1 mm 3 m/S 745 mmHg 60%
    17:00 +31°C° 0 mm 3 m/S 745 mmHg 69%
    18:00 +29°C° 0 mm 2 m/S 746 mmHg 78%
    19:00 +27°C° 0 mm 2 m/S 746 mmHg 87%
    20:00 +27°C° 0,1 mm 2 m/S 747 mmHg 89%
    21:00 +26°C° 0,1 mm 1 m/S 747 mmHg 91%
    22:00 +26°C° 0,1 mm 1 m/S 748 mmHg 93%
    23:00 +26°C° 0,2 mm 1 m/S 747 mmHg 94%

    1 April, Samstag

    Zeit Temperatur Niederschläge Wind Luftdruck Luftfeuchtigkeit
    00:00 +26°C° 0,2 mm 1 m/S 747 mmHg 94%
    01:00 +25°C° 0,2 mm 1 m/S 747 mmHg 94%
    02:00 +25°C° 0,1 mm 1 m/S 747 mmHg 94%
    03:00 +26°C° 0,1 mm 2 m/S 746 mmHg 93%
    04:00 +26°C° 0,1 mm 2 m/S 746 mmHg 93%
    05:00 +26°C° 0,1 mm 2 m/S 747 mmHg 93%
    06:00 +26°C° 0,1 mm 2 m/S 747 mmHg 92%
    07:00 +26°C° 0,1 mm 3 m/S 748 mmHg 92%
    08:00 +27°C° 0,1 mm 3 m/S 748 mmHg 85%
    09:00 +29°C° 0,1 mm 3 m/S 748 mmHg 79%
    10:00 +30°C° 0,1 mm 4 m/S 748 mmHg 72%
    11:00 +32°C° 0,2 mm 4 m/S 748 mmHg 71%
    12:00 +32°C° 0,2 mm 4 m/S 747 mmHg 70%
    13:00 +32°C° 0,2 mm 4 m/S 747 mmHg 69%
    14:00 +32°C° 0,1 mm 4 m/S 746 mmHg 71%
    15:00 +30°C° 0,1 mm 4 m/S 746 mmHg 73%
    16:00 +29°C° 0,1 mm 4 m/S 746 mmHg 75%
    17:00 +28°C° 0 mm 4 m/S 746 mmHg 79%
    18:00 +27°C° 0 mm 3 m/S 747 mmHg 83%
    19:00 +26°C° 0 mm 3 m/S 748 mmHg 87%
    20:00 +26°C° 0 mm 2 m/S 748 mmHg 89%
    21:00 +25°C° 0 mm 2 m/S 748 mmHg 90%
    22:00 +25°C° 0 mm 2 m/S 749 mmHg 91%
    23:00 +25°C° 0,1 mm 2 m/S 748 mmHg 92%

    2 April, Sonntag

    Zeit Temperatur Niederschläge Wind Luftdruck Luftfeuchtigkeit
    00:00 +25°C° 0,1 mm 2 m/S 748 mmHg 93%
    01:00 +25°C° 0,1 mm 2 m/S 748 mmHg 94%
    02:00 +25°C° 0 mm 2 m/S 748 mmHg 93%
    03:00 +25°C° 0 mm 3 m/S 748 mmHg 93%
    04:00 +25°C° 0 mm 3 m/S 747 mmHg 92%
    05:00 +25°C° 0 mm 3 m/S 748 mmHg 92%
    06:00 +25°C° 0 mm 3 m/S 748 mmHg 91%
    07:00 +24°C° 0 mm 3 m/S 749 mmHg 90%
    08:00 +26°C° 0 mm 3 m/S 749 mmHg 81%
    09:00 +28°C° 0 mm 3 m/S 749 mmHg 72%
    10:00 +29°C° 0 mm 4 m/S 749 mmHg 63%
    11:00 +30°C° 0 mm 4 m/S 749 mmHg 61%
    12:00 +32°C° 0 mm 4 m/S 748 mmHg 58%
    13:00 +32°C° 0 mm 4 m/S 748 mmHg 56%
    14:00 +32°C° 0 mm 4 m/S 748 mmHg 59%
    15:00 +32°C° 0 mm 5 m/S 747 mmHg 61%
    16:00 +30°C° 0 mm 5 m/S 747 mmHg 64%
    17:00 +28°C° 0,2 mm 5 m/S 748 mmHg 72%
    18:00 +27°C° 0,2 mm 4 m/S 748 mmHg 81%
    19:00 +25°C° 0,2 mm 4 m/S 749 mmHg 90%
    20:00 +25°C° 0,4 mm 4 m/S 749 mmHg 91%
    21:00 +23°C° 0,4 mm 4 m/S 750 mmHg 92%
    22:00 +23°C° 0,4 mm 5 m/S 750 mmHg 92%
    23:00 +23°C° 0,5 mm 5 m/S 750 mmHg 92%

    3 April, Montag

    Zeit Temperatur Niederschläge Wind Luftdruck Luftfeuchtigkeit
    00:00 +23°C° 0,5 mm 5 m/S 749 mmHg 92%
    01:00 +23°C° 0,5 mm 4 m/S 749 mmHg 92%
    02:00 +23°C° 0,5 mm 4 m/S 749 mmHg 93%
    03:00 +23°C° 0,5 mm 4 m/S 749 mmHg 93%
    04:00 +22°C° 0,5 mm 4 m/S 748 mmHg 94%
    05:00 +22°C° 0,4 mm 4 m/S 749 mmHg 94%
    06:00 +22°C° 0,4 mm 4 m/S 749 mmHg 94%
    07:00 +22°C° 0,4 mm 4 m/S 750 mmHg 94%
    08:00 +23°C° 0,2 mm 4 m/S 750 mmHg 89%
    09:00 +26°C° 0,2 mm 5 m/S 750 mmHg 85%
    10:00 +27°C° 0,2 mm 5 m/S 750 mmHg 80%
    11:00 +28°C° 0,2 mm 5 m/S 750 mmHg 74%
    12:00 +29°C° 0,2 mm 5 m/S 749 mmHg 69%
    13:00 +30°C° 0,2 mm 5 m/S 748 mmHg 63%
    14:00 +30°C° 0,2 mm 5 m/S 748 mmHg 64%
    15:00 +29°C° 0,2 mm 5 m/S 748 mmHg 66%
    16:00 +29°C° 0,2 mm 5 m/S 748 mmHg 67%
    17:00 +27°C° 0,5 mm 5 m/S 748 mmHg 75%
    18:00 +26°C° 0,5 mm 5 m/S 748 mmHg 84%
    19:00 +23°C° 0,5 mm 5 m/S 749 mmHg 92%
    20:00 +23°C° 0,7 mm 5 m/S 749 mmHg 92%
    21:00 +23°C° 0,7 mm 6 m/S 749 mmHg 93%
    22:00 +23°C° 0,7 mm 6 m/S 749 mmHg 93%
    23:00 +23°C° 0,8 mm 6 m/S 749 mmHg 93%
    Mehr zeigen